Flag for U.S.A. Weather past 2 weeks in Allentown, Pennsylvania, U.S.A.

Now
74 °F

Sunny.


Feels Like: 74 °F
Forecast: 64 / 81 °F
Wind: 3 mph from Northeast

Location: Lehigh Valley International Airport

Current Time: Jul 6, 2015 at 10:07:35 AM

Latest Report: Jul 6, 2015 at 8:51 AM


Visibility: 7 mi

Pressure: 30.15 "Hg

Humidity: 79%

Dew point: 67 °F

Location of AllentownLocation

Historic Weather in Allentown — Graph

°F

Allentown temperature yesterday

Maximum temperature yesterday: 83 °F (at 3:51 PM)
Minimum temperature yesterday: 61 °F (at 4:58 AM)
Average temperature yesterday: 71 °F

Past Weeks' High & Low Weather Summary

 TemperatureHumidityPressure
High89 °F (Jun 23, 3:51 PM)94% (Jul 1, 6:01 AM)30.16 "Hg (Jul 1, 6:01 AM)
Low57 °F (Jun 27, 6:59 PM)42% (Jun 22, 5:51 PM)29.66 "Hg (Jun 28, 5:51 AM)
Average71 °F72%29.93 "Hg
* Reported Jun 21 7:51 AM — Jul 6 7:51 AM, Allentown, Weather by CustomWeather, © 2015

Note: Actual official high and low records may vary slightly from our data, if they occured in-between our weather recording intervals... More about our weather records

Advertising

Allentown weather history for previous 24 hours

 ConditionsComfort  
Time TempWeatherWind HumidityBarometerVisibility
7:51 AM
Mon, Jul 6
70 °FSunny.5 mph84%30.16 "Hg6 mi
6:51 AM68 °FFog.No wind87%30.15 "Hg5 mi
5:51 AM66 °FFog.3 mph90%30.14 "Hg5 mi
4:51 AM66 °FClear.5 mph90%30.14 "Hg7 mi
3:51 AM65 °FFog.5 mph91%30.14 "Hg6 mi
2:51 AM65 °FFog.No wind94%30.14 "Hg5 mi
1:51 AM65 °FFog.No wind94%30.14 "Hg6 mi
12:51 AM67 °FClear.3 mph90%30.15 "Hg7 mi
11:51 PM
Sun, Jul 5
68 °FClear.No wind87%30.14 "Hg8 mi
10:51 PM68 °FClear.3 mph87%30.14 "Hg9 mi
9:51 PM74 °FClear.No wind69%30.13 "Hg10 mi
8:51 PM74 °FSunny.3 mph69%30.12 "Hg10 mi
7:51 PM75 °FSunny.3 mph66%30.11 "Hg10 mi
6:51 PM78 °FSunny.5 mph60%30.10 "Hg10 mi
5:51 PM81 °FSunny.5 mph51%30.11 "Hg10 mi
4:51 PM82 °FSunny.No wind46%30.10 "Hg10 mi
3:51 PM83 °FSunny.3 mph48%30.11 "Hg10 mi
2:51 PM82 °FSunny.No wind49%30.12 "Hg10 mi
1:51 PM79 °FSunny.No wind54%30.14 "Hg10 mi
12:51 PM77 °FSunny.3 mph62%30.15 "Hg10 mi
11:51 AM73 °FPassing clouds.No wind71%30.15 "Hg10 mi
10:51 AM72 °FScattered clouds.5 mph73%30.16 "Hg10 mi
Weather by CustomWeather, © 2015

See weather overviewHow to use our weather pages